Time,TemperatureF,DewpointF,PressureIn,WindDirection,WindDirectionDegrees,WindSpeedMPH,WindSpeedGustMPH,Humidity,HourlyPrecipIn,Conditions,Clouds,dailyrainin,SolarRadiationWatts/m^2,SoftwareType,DateUTC
2013-02-02 00:01:00,50.0,46.9,30.21,WSW,254,2.7,3.5,89,0.00,OVC,,0.00,0.0,WeatherDisplay:10.37,2013-02-02 08:01:00,
2013-02-02 00:07:00,49.9,46.8,30.21,WSW,252,1.5,3.5,89,0.00,OVC,,0.00,0.0,WeatherDisplay:10.37,2013-02-02 08:07:00,
2013-02-02 00:12:00,49.8,47.0,30.20,WSW,255,2.4,4.6,90,0.00,OVC,,0.00,0.0,WeatherDisplay:10.37,2013-02-02 08:12:00,
2013-02-02 00:17:00,49.7,46.9,30.20,WSW,253,4.1,6.9,90,0.00,OVC,,0.00,0.0,WeatherDisplay:10.37,2013-02-02 08:17:00,
2013-02-02 00:22:00,49.5,46.7,30.20,WSW,249,6.9,11.5,90,0.00,OVC,,0.00,0.0,WeatherDisplay:10.37,2013-02-02 08:22:00,
2013-02-02 00:27:00,49.4,46.9,30.20,WSW,256,2.7,5.8,91,0.00,OVC,,0.00,0.0,WeatherDisplay:10.37,2013-02-02 08:27:00,
2013-02-02 00:32:00,49.4,46.9,30.20,WSW,246,5.1,9.2,91,0.00,OVC,,0.00,0.0,WeatherDisplay:10.37,2013-02-02 08:32:00,
2013-02-02 00:37:00,49.4,46.9,30.20,WSW,254,7.9,11.5,91,0.00,OVC,,0.00,0.0,WeatherDisplay:10.37,2013-02-02 08:37:00,
2013-02-02 00:42:00,49.2,46.7,30.21,West,266,4.7,5.8,91,0.00,OVC,,0.00,0.0,WeatherDisplay:10.37,2013-02-02 08:42:00,
2013-02-02 00:47:00,49.1,46.6,30.21,WSW,244,3.5,6.9,91,0.00,OVC,,0.00,0.0,WeatherDisplay:10.37,2013-02-02 08:47:00,
2013-02-02 00:52:00,49.1,46.6,30.21,West,267,6.6,11.5,91,0.00,OVC,,0.00,0.0,WeatherDisplay:10.37,2013-02-02 08:52:00,
2013-02-02 00:57:00,49.0,46.8,30.21,WSW,247,2.2,3.5,92,0.00,OVC,,0.00,0.0,WeatherDisplay:10.37,2013-02-02 08:57:00,
2013-02-02 01:02:00,49.0,46.8,30.21,West,279,1.7,5.8,92,0.00,OVC,,0.00,0.0,WeatherDisplay:10.37,2013-02-02 09:02:00,
2013-02-02 01:07:00,49.0,46.8,30.20,SW,235,3.9,6.9,92,0.00,OVC,,0.00,0.0,WeatherDisplay:10.37,2013-02-02 09:07:00,
2013-02-02 01:12:00,49.0,46.8,30.20,West,280,2.2,5.8,92,0.00,OVC,,0.00,0.0,WeatherDisplay:10.37,2013-02-02 09:12:00,
2013-02-02 01:17:00,49.0,46.8,30.21,SW,232,3.5,4.6,92,0.00,OVC,,0.00,0.0,WeatherDisplay:10.37,2013-02-02 09:17:00,
2013-02-02 01:22:00,49.0,46.8,30.21,WSW,252,5.1,9.2,92,0.00,OVC,,0.00,0.0,WeatherDisplay:10.37,2013-02-02 09:22:00,
2013-02-02 01:27:00,49.0,46.8,30.21,West,263,3.6,9.2,92,0.00,OVC,,0.00,0.0,WeatherDisplay:10.37,2013-02-02 09:27:00,
2013-02-02 01:32:00,49.0,46.8,30.21,WNW,298,4.4,6.9,92,0.00,OVC,,0.00,0.0,WeatherDisplay:10.37,2013-02-02 09:32:00,
2013-02-02 01:37:00,49.0,46.8,30.21,WSW,243,4.3,5.0,92,0.00,OVC,,0.00,0.0,WeatherDisplay:10.37,2013-02-02 09:37:00,
2013-02-02 01:42:00,49.0,47.1,30.22,WSW,247,2.1,3.5,93,0.00,OVC,,0.00,0.0,WeatherDisplay:10.37,2013-02-02 09:42:00,
2013-02-02 01:47:00,49.0,47.1,30.22,WSW,252,4.3,7.0,93,0.00,OVC,,0.00,0.0,WeatherDisplay:10.37,2013-02-02 09:47:00,
2013-02-02 01:52:00,49.0,47.1,30.22,WSW,258,2.3,4.6,93,0.00,OVC,,0.00,0.0,WeatherDisplay:10.37,2013-02-02 09:52:00,
2013-02-02 01:57:00,49.0,47.1,30.22,WSW,251,2.7,6.0,93,0.00,OVC,,0.00,0.0,WeatherDisplay:10.37,2013-02-02 09:57:00,
2013-02-02 02:02:00,49.0,47.1,30.22,West,261,3.5,5.8,93,0.00,OVC,,0.00,0.0,WeatherDisplay:10.37,2013-02-02 10:02:00,
2013-02-02 02:07:00,49.0,47.1,30.22,West,264,1.8,3.5,93,0.00,OVC,,0.00,0.0,WeatherDisplay:10.37,2013-02-02 10:07:00,
2013-02-02 02:12:00,49.0,47.1,30.22,WSW,246,2.8,4.0,93,0.00,OVC,,0.00,0.0,WeatherDisplay:10.37,2013-02-02 10:12:00,
2013-02-02 02:17:00,49.0,47.1,30.22,WSW,242,2.7,5.8,93,0.00,OVC,,0.00,0.0,WeatherDisplay:10.37,2013-02-02 10:17:00,
2013-02-02 02:22:00,49.0,47.1,30.22,West,275,5.2,6.9,93,0.00,OVC,,0.00,0.0,WeatherDisplay:10.37,2013-02-02 10:22:00,
2013-02-02 02:27:00,48.9,47.0,30.22,WSW,248,3.2,9.0,93,0.00,OVC,,0.00,0.0,WeatherDisplay:10.37,2013-02-02 10:27:00,
2013-02-02 02:32:00,48.9,47.0,30.22,WSW,253,3.1,4.6,93,0.00,OVC,,0.00,0.0,WeatherDisplay:10.37,2013-02-02 10:32:00,
2013-02-02 02:37:00,48.9,47.0,30.22,West,275,2.3,3.5,93,0.00,OVC,,0.00,0.0,WeatherDisplay:10.37,2013-02-02 10:37:00,
2013-02-02 02:42:00,48.9,47.0,30.22,West,267,3.5,5.8,93,0.00,OVC,,0.00,0.0,WeatherDisplay:10.37,2013-02-02 10:42:00,
2013-02-02 02:47:00,48.9,47.0,30.22,SW,235,6.2,10.4,93,0.00,OVC,,0.00,0.0,WeatherDisplay:10.37,2013-02-02 10:47:00,
2013-02-02 02:52:00,48.9,47.0,30.22,West,277,3.7,4.6,93,0.00,OVC,,0.00,0.0,WeatherDisplay:10.37,2013-02-02 10:52:00,
2013-02-02 02:57:00,48.9,47.0,30.23,West,273,2.4,3.5,93,0.00,OVC,,0.00,0.0,WeatherDisplay:10.37,2013-02-02 10:57:00,
2013-02-02 03:02:00,48.9,47.0,30.22,WNW,286,1.2,3.5,93,0.00,OVC,,0.00,0.0,WeatherDisplay:10.37,2013-02-02 11:02:00,
2013-02-02 03:07:00,48.9,47.0,30.22,West,275,2.7,3.5,93,0.00,OVC,,0.00,0.0,WeatherDisplay:10.37,2013-02-02 11:07:00,
2013-02-02 03:12:00,48.8,46.9,30.22,WSW,248,2.7,4.6,93,0.00,OVC,,0.00,0.0,WeatherDisplay:10.37,2013-02-02 11:12:00,
2013-02-02 03:17:00,48.9,47.0,30.22,WSW,255,1.6,5.8,93,0.00,OVC,,0.00,0.0,WeatherDisplay:10.37,2013-02-02 11:17:00,
2013-02-02 03:22:00,48.8,46.9,30.22,WSW,243,3.8,8.1,93,0.00,OVC,,0.00,0.0,WeatherDisplay:10.37,2013-02-02 11:22:00,
2013-02-02 03:27:00,48.8,46.9,30.22,WSW,243,0.0,0.0,93,0.00,OVC,,0.00,0.0,WeatherDisplay:10.37,2013-02-02 11:27:00,
2013-02-02 03:32:00,48.8,46.9,30.22,WSW,243,0.0,0.0,93,0.00,OVC,,0.00,0.0,WeatherDisplay:10.37,2013-02-02 11:32:00,
2013-02-02 03:37:00,48.8,46.9,30.21,WSW,243,0.7,1.1,93,0.00,OVC,,0.00,0.0,WeatherDisplay:10.37,2013-02-02 11:37:00,
2013-02-02 03:42:00,48.8,46.9,30.21,WSW,243,0.0,0.0,93,0.00,OVC,,0.00,0.0,WeatherDisplay:10.37,2013-02-02 11:42:00,
2013-02-02 03:47:00,48.8,46.9,30.21,WSW,243,0.3,0.0,93,0.00,OVC,,0.00,0.0,WeatherDisplay:10.37,2013-02-02 11:47:00,
2013-02-02 03:52:00,48.8,46.9,30.21,WSW,258,0.0,0.0,93,0.00,OVC,,0.00,0.0,WeatherDisplay:10.37,2013-02-02 11:52:00,
2013-02-02 03:57:00,48.7,46.8,30.20,WSW,258,0.0,0.0,93,0.00,OVC,,0.00,0.0,WeatherDisplay:10.37,2013-02-02 11:57:00,
2013-02-02 04:02:00,48.7,46.8,30.20,WSW,258,0.0,0.0,93,0.00,OVC,,0.00,0.0,WeatherDisplay:10.37,2013-02-02 12:02:00,
2013-02-02 04:07:00,48.6,46.7,30.20,West,259,0.0,0.0,93,0.00,OVC,,0.00,0.0,WeatherDisplay:10.37,2013-02-02 12:07:00,
2013-02-02 04:12:00,48.6,46.7,30.20,WSW,258,0.0,0.0,93,0.00,OVC,,0.00,0.0,WeatherDisplay:10.37,2013-02-02 12:12:00,
2013-02-02 04:17:00,48.6,46.7,30.20,WSW,258,0.0,0.0,93,0.00,OVC,,0.00,0.0,WeatherDisplay:10.37,2013-02-02 12:17:00,
2013-02-02 04:22:00,48.5,46.6,30.20,WSW,258,0.0,0.0,93,0.00,OVC,,0.00,0.0,WeatherDisplay:10.37,2013-02-02 12:22:00,
2013-02-02 04:27:00,48.6,46.7,30.20,WSW,258,0.0,0.0,93,0.00,OVC,,0.00,0.0,WeatherDisplay:10.37,2013-02-02 12:27:00,
2013-02-02 04:32:00,48.6,46.7,30.21,WSW,258,0.0,0.0,93,0.00,OVC,,0.00,0.0,WeatherDisplay:10.37,2013-02-02 12:32:00,
2013-02-02 04:37:00,48.6,46.7,30.21,West,259,0.0,0.0,93,0.00,OVC,,0.00,0.0,WeatherDisplay:10.37,2013-02-02 12:37:00,
2013-02-02 04:42:00,48.6,46.7,30.21,WSW,258,0.0,0.0,93,0.00,OVC,,0.00,0.0,WeatherDisplay:10.37,2013-02-02 12:42:00,
2013-02-02 04:47:00,48.7,46.8,30.21,West,259,0.0,0.0,93,0.00,OVC,,0.00,0.0,WeatherDisplay:10.37,2013-02-02 12:47:00,
2013-02-02 04:53:00,48.7,46.8,30.21,WSW,258,0.0,0.0,93,0.00,OVC,,0.00,0.0,WeatherDisplay:10.37,2013-02-02 12:53:00,
2013-02-02 04:58:00,48.8,46.9,30.21,WSW,258,0.0,0.0,93,0.00,OVC,,0.00,0.0,WeatherDisplay:10.37,2013-02-02 12:58:00,
2013-02-02 05:03:00,48.8,46.9,30.21,West,260,0.0,0.0,93,0.00,OVC,,0.00,0.0,WeatherDisplay:10.37,2013-02-02 13:03:00,
2013-02-02 05:08:00,48.8,46.9,30.21,NW,310,0.0,0.0,93,0.00,OVC,,0.00,0.0,WeatherDisplay:10.37,2013-02-02 13:08:00,
2013-02-02 05:13:00,48.8,46.9,30.21,NW,313,0.0,0.0,93,0.00,OVC,,0.00,0.0,WeatherDisplay:10.37,2013-02-02 13:13:00,
2013-02-02 05:18:00,48.8,46.9,30.22,NW,313,0.0,0.0,93,0.00,OVC,,0.00,0.0,WeatherDisplay:10.37,2013-02-02 13:18:00,
2013-02-02 05:23:00,48.8,46.9,30.21,NW,313,0.0,0.0,93,0.00,OVC,,0.00,0.0,WeatherDisplay:10.37,2013-02-02 13:23:00,
2013-02-02 05:28:00,48.7,46.8,30.21,NW,313,0.0,0.0,93,0.00,OVC,,0.00,0.0,WeatherDisplay:10.37,2013-02-02 13:28:00,
2013-02-02 05:33:00,48.7,46.8,30.22,NW,313,0.0,0.0,93,0.00,OVC,,0.00,0.0,WeatherDisplay:10.37,2013-02-02 13:33:00,
2013-02-02 05:38:00,48.7,46.8,30.22,NW,313,0.0,0.0,93,0.00,OVC,,0.00,0.0,WeatherDisplay:10.37,2013-02-02 13:38:00,
2013-02-02 05:43:00,48.7,46.8,30.22,NW,313,0.0,0.0,93,0.00,OVC,,0.00,0.0,WeatherDisplay:10.37,2013-02-02 13:43:00,
2013-02-02 05:48:00,48.7,46.8,30.22,NW,313,0.0,0.0,93,0.00,OVC,,0.00,0.0,WeatherDisplay:10.37,2013-02-02 13:48:00,
2013-02-02 05:53:00,48.7,46.8,30.22,NW,313,0.0,0.0,93,0.00,OVC,,0.00,0.0,WeatherDisplay:10.37,2013-02-02 13:53:00,
2013-02-02 05:58:00,48.6,46.7,30.22,NW,313,0.0,0.0,93,0.00,OVC,,0.00,0.0,WeatherDisplay:10.37,2013-02-02 13:58:00,
2013-02-02 06:03:00,48.6,46.7,30.22,NW,313,0.0,0.0,93,0.00,OVC,,0.00,0.0,WeatherDisplay:10.37,2013-02-02 14:03:00,
2013-02-02 06:08:00,48.6,46.7,30.22,NW,313,0.0,0.0,93,0.00,OVC,,0.00,0.0,WeatherDisplay:10.37,2013-02-02 14:08:00,
2013-02-02 06:13:00,48.5,46.6,30.22,NW,313,0.0,0.0,93,0.00,OVC,,0.00,0.0,WeatherDisplay:10.37,2013-02-02 14:13:00,
2013-02-02 06:18:00,48.5,46.6,30.22,NW,313,0.0,0.0,93,0.00,OVC,,0.00,0.0,WeatherDisplay:10.37,2013-02-02 14:18:00,
2013-02-02 06:23:00,48.5,46.6,30.22,NW,313,0.0,0.0,93,0.00,OVC,,0.00,0.0,WeatherDisplay:10.37,2013-02-02 14:23:00,
2013-02-02 06:28:00,48.5,46.6,30.22,NW,313,0.0,0.0,93,0.00,OVC,,0.00,0.0,WeatherDisplay:10.37,2013-02-02 14:28:00,
2013-02-02 06:33:00,48.5,46.6,30.22,NW,313,0.0,0.0,93,0.00,OVC,,0.00,0.0,WeatherDisplay:10.37,2013-02-02 14:33:00,
2013-02-02 06:38:00,48.5,46.6,30.22,NW,313,0.0,0.0,93,0.00,OVC,,0.00,0.0,WeatherDisplay:10.37,2013-02-02 14:38:00,
2013-02-02 06:43:00,48.6,46.7,30.22,NW,318,0.0,0.0,93,0.00,OVC,,0.00,0.0,WeatherDisplay:10.37,2013-02-02 14:43:00,
2013-02-02 06:48:00,48.7,46.8,30.23,NW,318,0.0,0.0,93,0.00,OVC,,0.00,0.0,WeatherDisplay:10.37,2013-02-02 14:48:00,
2013-02-02 06:53:00,48.7,46.8,30.23,NW,317,0.0,0.0,93,0.00,OVC,,0.00,0.0,WeatherDisplay:10.37,2013-02-02 14:53:00,
2013-02-02 06:58:00,48.8,46.9,30.23,NW,318,0.0,0.0,93,0.00,OVC,,0.00,0.0,WeatherDisplay:10.37,2013-02-02 14:58:00,
2013-02-02 07:03:00,48.8,46.9,30.24,NW,318,0.0,0.0,93,0.00,OVC,,0.00,0.0,WeatherDisplay:10.37,2013-02-02 15:03:00,
2013-02-02 07:08:00,48.8,46.9,30.24,NW,317,0.0,0.0,93,0.00,OVC,,0.00,0.0,WeatherDisplay:10.37,2013-02-02 15:08:00,
2013-02-02 07:13:00,48.8,46.9,30.24,NW,317,0.0,0.0,93,0.00,OVC,,0.00,0.0,WeatherDisplay:10.37,2013-02-02 15:13:00,
2013-02-02 07:18:00,48.8,46.9,30.24,NW,307,0.0,0.0,93,0.00,OVC,,0.00,0.0,WeatherDisplay:10.37,2013-02-02 15:18:00,
2013-02-02 07:23:00,49.0,47.1,30.25,NW,306,0.0,0.0,93,0.00,OVC,,0.00,5.0,WeatherDisplay:10.37,2013-02-02 15:23:00,
2013-02-02 07:28:00,49.0,47.1,30.26,NW,307,0.0,0.0,93,0.00,OVC,,0.00,7.0,WeatherDisplay:10.37,2013-02-02 15:28:00,
2013-02-02 07:33:00,49.0,47.1,30.26,NW,306,0.0,0.0,93,0.00,OVC,,0.00,11.0,WeatherDisplay:10.37,2013-02-02 15:33:00,
2013-02-02 07:38:00,49.1,47.2,30.26,NW,306,0.0,0.0,93,0.00,OVC,,0.00,16.0,WeatherDisplay:10.37,2013-02-02 15:38:00,
2013-02-02 07:43:00,49.4,47.7,30.26,NW,306,0.0,0.0,94,0.00,OVC,,0.00,21.0,WeatherDisplay:10.37,2013-02-02 15:43:00,
2013-02-02 07:48:00,49.8,48.1,30.25,NW,306,0.0,0.0,94,0.00,OVC,,0.00,28.0,WeatherDisplay:10.37,2013-02-02 15:48:00,
2013-02-02 07:53:00,50.0,48.3,30.25,NW,306,0.0,0.0,94,0.00,OVC,,0.00,35.0,WeatherDisplay:10.37,2013-02-02 15:53:00,
2013-02-02 07:58:00,50.3,48.6,30.25,NW,307,0.0,0.0,94,0.00,OVC,,0.00,40.0,WeatherDisplay:10.37,2013-02-02 15:58:00,
2013-02-02 08:03:00,50.2,48.3,30.25,NW,306,0.0,0.0,93,0.00,CLR,,0.00,46.0,WeatherDisplay:10.37,2013-02-02 16:03:00,
2013-02-02 08:08:00,50.1,47.9,30.26,NW,306,0.0,1.0,92,0.00,CLR,,0.00,53.0,WeatherDisplay:10.37,2013-02-02 16:08:00,
2013-02-02 08:13:00,50.0,47.8,30.26,NW,306,0.0,0.0,92,0.00,CLR,,0.00,56.0,WeatherDisplay:10.37,2013-02-02 16:13:00,
2013-02-02 08:18:00,50.0,48.1,30.26,NW,305,1.0,2.3,93,0.00,CLR,,0.00,63.0,WeatherDisplay:10.37,2013-02-02 16:18:00,
2013-02-02 08:23:00,50.0,47.8,30.26,SW,229,0.0,0.0,92,0.00,CLR,,0.00,69.0,WeatherDisplay:10.37,2013-02-02 16:23:00,
2013-02-02 08:28:00,50.0,47.8,30.26,SW,229,0.0,0.0,92,0.00,CLR,,0.00,65.0,WeatherDisplay:10.37,2013-02-02 16:28:00,
2013-02-02 08:33:00,50.1,47.9,30.27,SW,229,0.0,0.0,92,0.00,CLR,,0.00,69.0,WeatherDisplay:10.37,2013-02-02 16:33:00,
2013-02-02 08:38:00,50.1,47.9,30.27,SW,229,0.5,1.1,92,0.00,CLR,,0.00,74.0,WeatherDisplay:10.37,2013-02-02 16:38:00,
2013-02-02 08:43:00,50.2,48.0,30.27,SW,228,1.2,3.5,92,0.00,CLR,,0.00,90.0,WeatherDisplay:10.37,2013-02-02 16:43:00,
2013-02-02 08:48:00,50.4,48.2,30.27,SW,229,0.4,1.0,92,0.00,CLR,,0.00,91.0,WeatherDisplay:10.37,2013-02-02 16:48:00,
2013-02-02 08:53:00,50.4,48.2,30.27,SW,232,0.0,3.5,92,0.00,CLR,,0.00,90.0,WeatherDisplay:10.37,2013-02-02 16:53:00,
2013-02-02 08:58:00,50.5,48.3,30.27,SW,232,0.0,0.0,92,0.00,FEW,,0.00,95.0,WeatherDisplay:10.37,2013-02-02 16:58:00,
2013-02-02 09:03:00,50.5,48.3,30.27,SW,232,0.0,0.0,92,0.00,FEW,,0.00,104.0,WeatherDisplay:10.37,2013-02-02 17:03:00,
2013-02-02 09:08:00,50.6,48.1,30.27,SW,232,0.0,0.0,91,0.00,FEW,,0.00,128.0,WeatherDisplay:10.37,2013-02-02 17:08:00,
2013-02-02 09:13:00,50.7,48.2,30.27,SW,232,0.0,0.0,91,0.00,FEW,,0.00,139.0,WeatherDisplay:10.37,2013-02-02 17:13:00,
2013-02-02 09:18:00,50.7,48.2,30.27,SW,235,0.0,0.0,91,0.00,CLR,,0.00,142.0,WeatherDisplay:10.37,2013-02-02 17:18:00,
2013-02-02 09:23:00,50.9,48.4,30.27,SW,235,0.0,0.0,91,0.00,CLR,,0.00,162.0,WeatherDisplay:10.37,2013-02-02 17:23:00,
2013-02-02 09:28:00,50.9,48.4,30.27,NW,323,0.0,0.0,91,0.00,CLR,,0.00,174.0,WeatherDisplay:10.37,2013-02-02 17:28:00,
2013-02-02 09:33:00,51.0,48.2,30.27,NW,323,0.0,0.0,90,0.00,CLR,,0.00,176.0,WeatherDisplay:10.37,2013-02-02 17:33:00,
2013-02-02 09:38:00,51.1,48.3,30.27,NNW,331,0.0,0.0,90,0.00,FEW,,0.00,163.0,WeatherDisplay:10.37,2013-02-02 17:38:00,
2013-02-02 09:43:00,51.2,48.4,30.27,NNW,339,0.0,0.0,90,0.00,FEW,,0.00,174.0,WeatherDisplay:10.37,2013-02-02 17:43:00,
2013-02-02 09:48:00,51.3,48.2,30.27,North,352,0.0,0.0,89,0.00,SCT,,0.00,183.0,WeatherDisplay:10.37,2013-02-02 17:48:00,
2013-02-02 09:53:00,51.5,48.7,30.27,North,352,0.0,0.0,90,0.00,SCT,,0.00,214.0,WeatherDisplay:10.37,2013-02-02 17:53:00,
2013-02-02 09:58:00,51.7,48.9,30.27,North,352,0.0,0.0,90,0.00,FEW,,0.00,223.0,WeatherDisplay:10.37,2013-02-02 17:58:00,
2013-02-02 10:03:00,51.9,48.8,30.27,North,354,0.0,0.0,89,0.00,FEW,,0.00,207.0,WeatherDisplay:10.37,2013-02-02 18:03:00,
2013-02-02 10:08:00,52.0,48.6,30.28,North,354,0.0,0.0,88,0.00,SCT,,0.00,176.0,WeatherDisplay:10.37,2013-02-02 18:08:00,
2013-02-02 10:14:00,52.0,48.6,30.28,North,354,0.0,0.0,88,0.00,SCT,,0.00,199.0,WeatherDisplay:10.37,2013-02-02 18:14:00,
2013-02-02 10:19:00,52.2,48.8,30.28,West,260,3.2,4.0,88,0.00,SCT,,0.00,218.0,WeatherDisplay:10.37,2013-02-02 18:19:00,
2013-02-02 10:24:00,52.3,48.5,30.28,WNW,296,3.7,5.8,87,0.00,SCT,,0.00,214.0,WeatherDisplay:10.37,2013-02-02 18:24:00,
2013-02-02 10:29:00,52.4,48.6,30.28,WNW,298,0.0,4.0,87,0.00,SCT,,0.00,274.0,WeatherDisplay:10.37,2013-02-02 18:29:00,
2013-02-02 10:34:00,52.5,48.7,30.28,West,273,0.0,3.5,87,0.00,FEW,,0.00,338.0,WeatherDisplay:10.37,2013-02-02 18:34:00,
2013-02-02 10:39:00,52.7,48.6,30.28,North,358,0.0,0.0,86,0.00,FEW,,0.00,288.0,WeatherDisplay:10.37,2013-02-02 18:39:00,
2013-02-02 10:44:00,52.9,48.8,30.28,North,358,0.0,0.0,86,0.00,FEW,,0.00,315.0,WeatherDisplay:10.37,2013-02-02 18:44:00,
2013-02-02 10:49:00,53.1,48.7,30.28,North,355,0.0,0.0,85,0.00,CLR,,0.00,387.0,WeatherDisplay:10.37,2013-02-02 18:49:00,
2013-02-02 10:54:00,53.3,48.9,30.28,North,5,0.0,0.0,85,0.00,CLR,,0.00,487.0,WeatherDisplay:10.37,2013-02-02 18:54:00,
2013-02-02 10:59:00,53.4,48.7,30.28,North,356,2.1,3.5,84,0.00,CLR,,0.00,374.0,WeatherDisplay:10.37,2013-02-02 18:59:00,
2013-02-02 11:04:00,53.7,49.3,30.28,NE,46,1.8,3.5,85,0.00,CLR,,0.00,287.0,WeatherDisplay:10.37,2013-02-02 19:04:00,
2013-02-02 11:09:00,53.8,49.1,30.28,North,360,2.3,3.5,84,0.00,CLR,,0.00,406.0,WeatherDisplay:10.37,2013-02-02 19:09:00,
2013-02-02 11:14:00,54.0,49.3,30.28,North,360,2.0,3.5,84,0.00,CLR,,0.00,492.0,WeatherDisplay:10.37,2013-02-02 19:14:00,
2013-02-02 11:19:00,54.1,49.1,30.28,NE,40,2.8,3.5,83,0.00,CLR,,0.00,587.0,WeatherDisplay:10.37,2013-02-02 19:19:00,
2013-02-02 11:24:00,54.4,49.3,30.28,NNW,348,3.6,5.8,83,0.00,CLR,,0.00,334.0,WeatherDisplay:10.37,2013-02-02 19:24:00,
2013-02-02 11:29:00,54.4,49.0,30.28,North,10,1.7,4.6,82,0.00,CLR,,0.00,313.0,WeatherDisplay:10.37,2013-02-02 19:29:00,
2013-02-02 11:34:00,54.4,49.0,30.27,North,5,2.4,3.5,82,0.00,SCT,,0.00,575.0,WeatherDisplay:10.37,2013-02-02 19:34:00,
2013-02-02 11:39:00,54.4,49.0,30.27,North,10,2.3,4.6,82,0.00,CLR,,0.00,524.0,WeatherDisplay:10.37,2013-02-02 19:39:00,
2013-02-02 11:44:00,54.2,48.8,30.27,NNE,21,3.0,4.6,82,0.00,CLR,,0.00,577.0,WeatherDisplay:10.37,2013-02-02 19:44:00,
2013-02-02 11:49:00,54.3,48.9,30.27,NNW,327,1.3,3.5,82,0.00,CLR,,0.00,587.0,WeatherDisplay:10.37,2013-02-02 19:49:00,
2013-02-02 11:54:00,54.7,49.3,30.26,WNW,296,2.7,5.8,82,0.00,CLR,,0.00,552.0,WeatherDisplay:10.37,2013-02-02 19:54:00,
2013-02-02 11:59:00,55.0,49.3,30.26,NNW,335,1.4,3.5,81,0.00,CLR,,0.00,626.0,WeatherDisplay:10.37,2013-02-02 19:59:00,
2013-02-02 12:04:00,55.3,49.6,30.26,NW,317,0.0,0.0,81,0.00,CLR,,0.00,605.0,WeatherDisplay:10.37,2013-02-02 20:04:00,
2013-02-02 12:09:00,55.7,49.6,30.26,NNW,330,0.0,0.0,80,0.00,CLR,,0.00,584.0,WeatherDisplay:10.37,2013-02-02 20:09:00,
2013-02-02 12:14:00,55.9,49.5,30.26,West,273,2.3,4.6,79,0.00,CLR,,0.00,490.0,WeatherDisplay:10.37,2013-02-02 20:14:00,
2013-02-02 12:19:00,55.9,49.5,30.25,NE,38,0.0,0.0,79,0.00,CLR,,0.00,483.0,WeatherDisplay:10.37,2013-02-02 20:19:00,
2013-02-02 12:24:00,55.9,49.5,30.25,NE,51,2.7,3.5,79,0.00,CLR,,0.00,550.0,WeatherDisplay:10.37,2013-02-02 20:24:00,
2013-02-02 12:29:00,55.8,49.4,30.25,North,352,3.0,5.8,79,0.00,CLR,,0.00,439.0,WeatherDisplay:10.37,2013-02-02 20:29:00,
2013-02-02 12:34:00,55.9,49.5,30.25,West,272,4.9,6.9,79,0.00,CLR,,0.00,366.0,WeatherDisplay:10.37,2013-02-02 20:34:00,
2013-02-02 12:39:00,55.6,49.2,30.24,West,277,3.0,9.2,79,0.00,CLR,,0.00,545.0,WeatherDisplay:10.37,2013-02-02 20:39:00,
2013-02-02 12:44:00,55.5,49.1,30.24,WNW,286,4.6,5.8,79,0.00,CLR,,0.00,360.0,WeatherDisplay:10.37,2013-02-02 20:44:00,
2013-02-02 12:49:00,55.4,49.3,30.24,WSW,252,5.1,6.0,80,0.00,FEW,,0.00,417.0,WeatherDisplay:10.37,2013-02-02 20:49:00,
2013-02-02 12:54:00,55.2,49.1,30.24,WNW,296,3.9,6.9,80,0.00,SCT,,0.00,320.0,WeatherDisplay:10.37,2013-02-02 20:54:00,
2013-02-02 12:59:00,55.1,49.0,30.23,North,10,4.2,5.8,80,0.00,SCT,,0.00,367.0,WeatherDisplay:10.37,2013-02-02 20:59:00,
2013-02-02 13:04:00,55.1,49.4,30.23,NW,312,1.9,3.5,81,0.00,SCT,,0.00,332.0,WeatherDisplay:10.37,2013-02-02 21:04:00,
2013-02-02 13:09:00,55.3,49.2,30.23,NW,309,2.8,4.6,80,0.00,SCT,,0.00,276.0,WeatherDisplay:10.37,2013-02-02 21:09:00,
2013-02-02 13:14:00,55.2,49.1,30.23,NW,313,1.1,3.5,80,0.00,SCT,,0.00,348.0,WeatherDisplay:10.37,2013-02-02 21:14:00,
2013-02-02 13:19:00,55.4,49.3,30.23,NNW,331,0.1,2.3,80,0.00,SCT,,0.00,323.0,WeatherDisplay:10.37,2013-02-02 21:19:00,
2013-02-02 13:24:00,55.7,49.3,30.23,NW,320,4.0,6.9,79,0.00,SCT,,0.00,380.0,WeatherDisplay:10.37,2013-02-02 21:24:00,
2013-02-02 13:29:00,56.0,49.6,30.22,NNE,19,1.9,5.8,79,0.00,SCT,,0.00,617.0,WeatherDisplay:10.37,2013-02-02 21:29:00,
2013-02-02 13:34:00,56.2,49.1,30.22,NNW,340,2.4,10.4,77,0.00,CLR,,0.00,504.0,WeatherDisplay:10.37,2013-02-02 21:34:00,
2013-02-02 13:39:00,56.3,49.5,30.22,WNW,298,1.9,8.1,78,0.00,CLR,,0.00,373.0,WeatherDisplay:10.37,2013-02-02 21:39:00,
2013-02-02 13:44:00,56.3,49.2,30.22,North,10,4.6,8.0,77,0.00,FEW,,0.00,547.0,WeatherDisplay:10.37,2013-02-02 21:44:00,
2013-02-02 13:49:00,55.8,49.0,30.22,West,274,6.5,10.4,78,0.00,CLR,,0.00,512.0,WeatherDisplay:10.37,2013-02-02 21:49:00,
2013-02-02 13:54:00,55.7,48.9,30.21,NNW,348,5.0,8.1,78,0.00,CLR,,0.00,517.0,WeatherDisplay:10.37,2013-02-02 21:54:00,
2013-02-02 13:59:00,55.5,48.8,30.21,WNW,286,4.6,6.9,78,0.00,CLR,,0.00,522.0,WeatherDisplay:10.37,2013-02-02 21:59:00,
2013-02-02 14:04:00,55.6,48.8,30.21,NNW,333,2.6,5.8,78,0.00,CLR,,0.00,425.0,WeatherDisplay:10.37,2013-02-02 22:04:00,
2013-02-02 14:09:00,55.8,49.0,30.21,WNW,295,4.1,5.0,78,0.00,CLR,,0.00,489.0,WeatherDisplay:10.37,2013-02-02 22:09:00,
2013-02-02 14:14:00,55.9,48.8,30.21,NW,308,1.8,4.6,77,0.00,CLR,,0.00,554.0,WeatherDisplay:10.37,2013-02-02 22:14:00,
2013-02-02 14:19:00,56.2,49.1,30.21,NW,305,1.0,1.1,77,0.00,CLR,,0.00,480.0,WeatherDisplay:10.37,2013-02-02 22:19:00,
2013-02-02 14:24:00,56.5,49.0,30.21,WNW,283,1.9,4.6,76,0.00,CLR,,0.00,251.0,WeatherDisplay:10.37,2013-02-02 22:24:00,
2013-02-02 14:29:00,56.6,49.1,30.21,West,279,5.0,5.8,76,0.00,SCT,,0.00,366.0,WeatherDisplay:10.37,2013-02-02 22:29:00,
2013-02-02 14:34:00,56.6,49.5,30.21,West,281,2.8,4.6,77,0.00,SCT,,0.00,381.0,WeatherDisplay:10.37,2013-02-02 22:34:00,
2013-02-02 14:39:00,57.0,49.5,30.21,West,280,0.1,6.9,76,0.00,CLR,,0.00,487.0,WeatherDisplay:10.37,2013-02-02 22:39:00,
2013-02-02 14:44:00,57.3,49.4,30.21,WNW,291,4.0,4.6,75,0.00,FEW,,0.00,373.0,WeatherDisplay:10.37,2013-02-02 22:44:00,
2013-02-02 14:49:00,57.4,49.5,30.21,West,275,1.4,3.0,75,0.00,FEW,,0.00,327.0,WeatherDisplay:10.37,2013-02-02 22:49:00,
2013-02-02 14:54:00,57.6,49.7,30.21,West,279,1.6,5.0,75,0.00,FEW,,0.00,385.0,WeatherDisplay:10.37,2013-02-02 22:54:00,
2013-02-02 14:59:00,58.0,49.8,30.21,NNW,345,2.7,3.5,74,0.00,FEW,,0.00,313.0,WeatherDisplay:10.37,2013-02-02 22:59:00,
2013-02-02 15:04:00,58.1,49.9,30.21,WNW,298,1.9,3.5,74,0.00,SCT,,0.00,265.0,WeatherDisplay:10.37,2013-02-02 23:04:00,
2013-02-02 15:09:00,58.2,49.6,30.21,NW,307,1.0,2.3,73,0.00,SCT,,0.00,297.0,WeatherDisplay:10.37,2013-02-02 23:09:00,
2013-02-02 15:14:00,58.6,50.0,30.21,WNW,296,1.7,3.5,73,0.00,SCT,,0.00,297.0,WeatherDisplay:10.37,2013-02-02 23:14:00,
2013-02-02 15:20:00,59.0,50.0,30.21,NNW,341,0.6,3.5,72,0.00,SCT,,0.00,297.0,WeatherDisplay:10.37,2013-02-02 23:20:00,
2013-02-02 15:25:00,59.1,50.1,30.21,NNW,335,0.0,3.0,72,0.00,SCT,,0.00,287.0,WeatherDisplay:10.37,2013-02-02 23:25:00,
2013-02-02 15:29:00,59.3,49.9,30.21,North,354,1.8,3.5,71,0.00,SCT,,0.00,278.0,WeatherDisplay:10.37,2013-02-02 23:29:00,
2013-02-02 15:35:00,59.2,49.8,30.21,North,354,0.8,2.3,71,0.00,SCT,,0.00,250.0,WeatherDisplay:10.37,2013-02-02 23:35:00,
2013-02-02 15:40:00,59.3,49.9,30.21,WNW,282,2.3,4.6,71,0.00,SCT,,0.00,213.0,WeatherDisplay:10.37,2013-02-02 23:40:00,
2013-02-02 15:45:00,59.4,50.0,30.22,WSW,242,5.3,9.2,71,0.00,SCT,,0.00,192.0,WeatherDisplay:10.37,2013-02-02 23:45:00,
2013-02-02 15:50:00,59.3,49.9,30.22,West,260,4.3,6.9,71,0.00,SCT,,0.00,169.0,WeatherDisplay:10.37,2013-02-02 23:50:00,
2013-02-02 15:55:00,58.8,49.4,30.22,West,267,6.2,11.5,71,0.00,SCT,,0.00,130.0,WeatherDisplay:10.37,2013-02-02 23:55:00,
2013-02-02 16:00:00,58.0,49.0,30.22,WSW,240,8.8,12.7,72,0.00,BKN,,0.00,97.0,WeatherDisplay:10.37,2013-02-03 00:00:00,
2013-02-02 16:05:00,57.0,48.8,30.22,WSW,244,6.0,14.0,74,0.00,BKN,,0.00,100.0,WeatherDisplay:10.37,2013-02-03 00:05:00,
2013-02-02 16:10:00,56.4,48.9,30.22,WSW,251,6.0,10.0,76,0.00,BKN,,0.00,97.0,WeatherDisplay:10.37,2013-02-03 00:10:00,
2013-02-02 16:15:00,56.0,48.9,30.22,WSW,246,8.5,11.5,77,0.00,BKN,,0.00,97.0,WeatherDisplay:10.37,2013-02-03 00:15:00,
2013-02-02 16:20:00,55.5,48.8,30.22,WSW,239,7.1,12.0,78,0.00,BKN,,0.00,93.0,WeatherDisplay:10.37,2013-02-03 00:20:00,
2013-02-02 16:25:00,55.2,48.5,30.22,WSW,242,3.0,12.0,78,0.00,BKN,,0.00,95.0,WeatherDisplay:10.37,2013-02-03 00:25:00,
2013-02-02 16:30:00,55.1,48.7,30.22,North,10,3.3,6.9,79,0.00,BKN,,0.00,86.0,WeatherDisplay:10.37,2013-02-03 00:30:00,
2013-02-02 16:35:00,55.1,48.7,30.22,WSW,248,3.0,7.0,79,0.00,BKN,,0.00,81.0,WeatherDisplay:10.37,2013-02-03 00:35:00,
2013-02-02 16:40:00,54.7,48.3,30.21,West,275,5.4,5.8,79,0.00,BKN,,0.00,91.0,WeatherDisplay:10.37,2013-02-03 00:40:00,
2013-02-02 16:45:00,54.3,47.9,30.21,West,274,5.5,6.0,79,0.00,BKN,,0.00,67.0,WeatherDisplay:10.37,2013-02-03 00:45:00,
2013-02-02 16:50:00,53.9,47.9,30.21,WNW,288,5.0,9.0,80,0.00,BKN,,0.00,53.0,WeatherDisplay:10.37,2013-02-03 00:50:00,
2013-02-02 16:55:00,53.5,47.5,30.21,WNW,285,6.0,12.0,80,0.00,BKN,,0.00,44.0,WeatherDisplay:10.37,2013-02-03 00:55:00,
2013-02-02 17:00:00,53.3,47.6,30.21,WNW,293,3.6,6.9,81,0.00,BKN,,0.00,39.0,WeatherDisplay:10.37,2013-02-03 01:00:00,
2013-02-02 17:05:00,53.2,47.5,30.21,WNW,298,0.0,8.0,81,0.00,BKN,,0.00,33.0,WeatherDisplay:10.37,2013-02-03 01:05:00,
2013-02-02 17:10:00,53.3,47.6,30.21,West,279,0.0,0.0,81,0.00,BKN,,0.00,26.0,WeatherDisplay:10.37,2013-02-03 01:10:00,
2013-02-02 17:15:00,53.3,47.3,30.21,WNW,283,5.0,7.0,80,0.00,BKN,,0.00,21.0,WeatherDisplay:10.37,2013-02-03 01:15:00,
2013-02-02 17:20:00,53.2,47.5,30.21,WNW,282,1.0,7.0,81,0.00,BKN,,0.00,18.0,WeatherDisplay:10.37,2013-02-03 01:20:00,
2013-02-02 17:25:00,53.2,47.2,30.21,WNW,296,1.7,3.5,80,0.00,BKN,,0.00,12.0,WeatherDisplay:10.37,2013-02-03 01:25:00,
2013-02-02 17:30:00,53.1,47.1,30.21,WNW,297,3.3,6.9,80,0.00,OVC,,0.00,9.0,WeatherDisplay:10.37,2013-02-03 01:30:00,
2013-02-02 17:35:00,52.9,47.2,30.21,West,270,4.5,6.0,81,0.00,OVC,,0.00,7.0,WeatherDisplay:10.37,2013-02-03 01:35:00,
2013-02-02 17:40:00,52.7,47.0,30.21,West,279,7.0,12.0,81,0.00,OVC,,0.00,7.0,WeatherDisplay:10.37,2013-02-03 01:40:00,
2013-02-02 17:45:00,52.5,47.2,30.21,West,277,5.0,9.0,82,0.00,OVC,,0.00,5.0,WeatherDisplay:10.37,2013-02-03 01:45:00,
2013-02-02 17:50:00,52.4,47.1,30.21,WNW,286,6.0,8.0,82,0.00,OVC,,0.00,0.0,WeatherDisplay:10.37,2013-02-03 01:50:00,
2013-02-02 17:55:00,52.5,47.2,30.21,WNW,294,0.1,3.5,82,0.00,OVC,,0.00,0.0,WeatherDisplay:10.37,2013-02-03 01:55:00,
2013-02-02 18:00:00,52.6,47.2,30.21,WNW,299,3.0,9.0,82,0.00,OVC,,0.00,0.0,WeatherDisplay:10.37,2013-02-03 02:00:00,
2013-02-02 18:05:00,52.6,46.9,30.21,WNW,292,2.0,6.0,81,0.00,OVC,,0.00,0.0,WeatherDisplay:10.37,2013-02-03 02:05:00,
2013-02-02 18:10:00,52.7,47.0,30.22,WNW,292,0.3,3.5,81,0.00,OVC,,0.00,0.0,WeatherDisplay:10.37,2013-02-03 02:10:00,
2013-02-02 18:15:00,52.7,47.1,30.22,WNW,292,0.0,3.0,81,0.00,OVC,,0.00,0.0,WeatherDisplay:10.37,2013-02-03 02:15:00,
2013-02-02 18:20:00,52.8,47.1,30.22,WNW,293,0.0,0.0,81,0.00,OVC,,0.00,0.0,WeatherDisplay:10.37,2013-02-03 02:20:00,
2013-02-02 18:25:00,52.7,47.0,30.22,WNW,293,1.7,3.5,81,0.00,OVC,,0.00,0.0,WeatherDisplay:10.37,2013-02-03 02:25:00,
2013-02-02 18:30:00,52.7,47.4,30.22,WNW,293,0.2,1.1,82,0.00,OVC,,0.00,0.0,WeatherDisplay:10.37,2013-02-03 02:30:00,
2013-02-02 18:35:00,52.8,47.5,30.22,West,261,3.4,4.0,82,0.00,OVC,,0.00,0.0,WeatherDisplay:10.37,2013-02-03 02:35:00,
2013-02-02 18:40:00,52.9,47.6,30.22,WSW,248,3.4,4.6,82,0.00,OVC,,0.00,0.0,WeatherDisplay:10.37,2013-02-03 02:40:00,
2013-02-02 18:45:00,52.9,47.6,30.22,WSW,248,3.6,5.8,82,0.00,OVC,,0.00,0.0,WeatherDisplay:10.37,2013-02-03 02:45:00,
2013-02-02 18:50:00,52.9,47.6,30.22,WSW,247,0.7,2.3,82,0.00,OVC,,0.00,0.0,WeatherDisplay:10.37,2013-02-03 02:50:00,
2013-02-02 18:55:00,52.8,47.5,30.22,WSW,247,0.0,0.0,82,0.00,OVC,,0.00,0.0,WeatherDisplay:10.37,2013-02-03 02:55:00,
2013-02-02 19:00:00,52.8,47.8,30.22,WSW,254,0.9,3.0,83,0.00,OVC,,0.00,0.0,WeatherDisplay:10.37,2013-02-03 03:00:00,
2013-02-02 19:05:00,52.8,47.8,30.22,WSW,254,1.2,3.5,83,0.00,OVC,,0.00,0.0,WeatherDisplay:10.37,2013-02-03 03:05:00,
2013-02-02 19:10:00,52.7,47.7,30.22,WSW,254,0.0,0.0,83,0.00,OVC,,0.00,0.0,WeatherDisplay:10.37,2013-02-03 03:10:00,
2013-02-02 19:15:00,52.6,47.6,30.22,WSW,253,1.7,4.0,83,0.00,OVC,,0.00,0.0,WeatherDisplay:10.37,2013-02-03 03:15:00,
2013-02-02 19:20:00,52.5,47.5,30.22,WSW,254,0.0,1.1,83,0.00,OVC,,0.00,0.0,WeatherDisplay:10.37,2013-02-03 03:20:00,
2013-02-02 19:25:00,52.3,47.6,30.22,WSW,254,1.6,3.5,84,0.00,OVC,,0.00,0.0,WeatherDisplay:10.37,2013-02-03 03:25:00,
2013-02-02 19:30:00,52.3,47.6,30.22,WSW,254,1.0,3.5,84,0.00,OVC,,0.00,0.0,WeatherDisplay:10.37,2013-02-03 03:30:00,
2013-02-02 19:35:00,52.2,47.5,30.22,WSW,254,0.0,0.0,84,0.00,OVC,,0.00,0.0,WeatherDisplay:10.37,2013-02-03 03:35:00,
2013-02-02 19:40:00,52.1,47.4,30.22,WSW,254,0.0,0.0,84,0.00,OVC,,0.00,0.0,WeatherDisplay:10.37,2013-02-03 03:40:00,
2013-02-02 19:45:00,52.1,47.4,30.22,WSW,254,1.8,3.5,84,0.00,OVC,,0.00,0.0,WeatherDisplay:10.37,2013-02-03 03:45:00,
2013-02-02 19:50:00,52.0,47.3,30.22,WSW,254,0.9,2.3,84,0.00,OVC,,0.00,0.0,WeatherDisplay:10.37,2013-02-03 03:50:00,
2013-02-02 19:55:00,51.9,47.2,30.22,WSW,254,0.0,1.0,84,0.00,OVC,,0.00,0.0,WeatherDisplay:10.37,2013-02-03 03:55:00,
2013-02-02 20:00:00,51.8,47.1,30.22,NW,319,2.3,3.5,84,0.00,OVC,,0.00,0.0,WeatherDisplay:10.37,2013-02-03 04:00:00,
2013-02-02 20:05:00,51.7,47.0,30.22,North,351,2.7,3.5,84,0.00,OVC,,0.00,0.0,WeatherDisplay:10.37,2013-02-03 04:05:00,
2013-02-02 20:10:00,51.6,46.9,30.22,WNW,291,0.8,5.0,84,0.00,OVC,,0.00,0.0,WeatherDisplay:10.37,2013-02-03 04:10:00,
2013-02-02 20:15:00,51.5,47.1,30.22,North,10,3.8,4.0,85,0.00,OVC,,0.00,0.0,WeatherDisplay:10.37,2013-02-03 04:15:00,
2013-02-02 20:20:00,51.4,47.0,30.22,WNW,294,4.8,6.9,85,0.00,OVC,,0.00,0.0,WeatherDisplay:10.37,2013-02-03 04:20:00,
2013-02-02 20:25:00,51.3,46.9,30.22,WNW,298,5.6,8.0,85,0.00,OVC,,0.00,0.0,WeatherDisplay:10.37,2013-02-03 04:25:00,
2013-02-02 20:30:00,51.1,46.7,30.22,WNW,294,4.9,6.9,85,0.00,OVC,,0.00,0.0,WeatherDisplay:10.37,2013-02-03 04:30:00,
2013-02-02 20:35:00,51.0,47.0,30.22,NW,312,0.9,5.8,86,0.00,OVC,,0.00,0.0,WeatherDisplay:10.37,2013-02-03 04:35:00,
2013-02-02 20:40:00,51.0,47.0,30.22,NW,304,2.7,5.8,86,0.00,OVC,,0.00,0.0,WeatherDisplay:10.37,2013-02-03 04:40:00,
2013-02-02 20:45:00,51.0,47.0,30.22,WNW,298,1.0,2.3,86,0.00,OVC,,0.00,0.0,WeatherDisplay:10.37,2013-02-03 04:45:00,
2013-02-02 20:50:00,51.0,47.0,30.22,WNW,300,1.4,3.5,86,0.00,OVC,,0.00,0.0,WeatherDisplay:10.37,2013-02-03 04:50:00,
2013-02-02 20:55:00,50.9,46.9,30.22,WNW,300,1.5,3.5,86,0.00,OVC,,0.00,0.0,WeatherDisplay:10.37,2013-02-03 04:55:00,
2013-02-02 21:00:00,50.9,46.9,30.22,WNW,300,0.7,2.3,86,0.00,OVC,,0.00,0.0,WeatherDisplay:10.37,2013-02-03 05:00:00,
2013-02-02 21:02:00,50.9,46.9,30.22,WNW,300,0.0,1.1,86,0.00,OVC,,0.00,0.0,WeatherDisplay:10.37,2013-02-03 05:02:00,
2013-02-02 21:03:00,50.9,46.9,30.22,WNW,300,0.1,1.0,86,0.00,OVC,,0.00,0.0,WeatherDisplay:10.37,2013-02-03 05:03:00,
2013-02-02 21:08:00,50.9,46.9,30.22,WNW,300,0.7,3.5,86,0.00,OVC,,0.00,0.0,WeatherDisplay:10.37,2013-02-03 05:08:00,
2013-02-02 21:13:00,50.8,46.8,30.23,WNW,300,2.0,3.5,86,0.00,OVC,,0.00,0.0,WeatherDisplay:10.37,2013-02-03 05:13:00,
2013-02-02 21:18:00,50.8,46.8,30.22,WNW,300,1.7,3.5,86,0.00,OVC,,0.00,0.0,WeatherDisplay:10.37,2013-02-03 05:18:00,
2013-02-02 21:23:00,50.7,46.7,30.22,WNW,302,1.1,3.0,86,0.00,OVC,,0.00,0.0,WeatherDisplay:10.37,2013-02-03 05:23:00,
2013-02-02 21:28:00,50.6,46.6,30.23,WNW,297,2.6,3.5,86,0.00,OVC,,0.00,0.0,WeatherDisplay:10.37,2013-02-03 05:28:00,
2013-02-02 21:33:00,50.5,46.5,30.22,West,280,2.1,3.5,86,0.00,OVC,,0.00,0.0,WeatherDisplay:10.37,2013-02-03 05:33:00,
2013-02-02 21:38:00,50.4,46.4,30.22,WNW,303,5.1,8.1,86,0.00,OVC,,0.00,0.0,WeatherDisplay:10.37,2013-02-03 05:38:00,
2013-02-02 21:43:00,50.3,46.3,30.22,West,262,2.5,4.6,86,0.00,OVC,,0.00,0.0,WeatherDisplay:10.37,2013-02-03 05:43:00,
2013-02-02 21:48:00,50.3,46.3,30.22,West,269,0.6,3.0,86,0.00,OVC,,0.00,0.0,WeatherDisplay:10.37,2013-02-03 05:48:00,
2013-02-02 21:53:00,50.2,46.2,30.22,West,269,1.0,2.0,86,0.00,OVC,,0.00,0.0,WeatherDisplay:10.37,2013-02-03 05:53:00,
2013-02-02 21:58:00,50.1,46.1,30.22,West,269,0.1,4.0,86,0.00,OVC,,0.00,0.0,WeatherDisplay:10.37,2013-02-03 05:58:00,
2013-02-02 22:03:00,50.0,46.0,30.22,WSW,252,3.1,3.5,86,0.00,OVC,,0.00,0.0,WeatherDisplay:10.37,2013-02-03 06:03:00,
2013-02-02 22:08:00,50.0,46.9,30.22,WSW,258,1.6,3.5,89,0.00,OVC,,0.00,0.0,WeatherDisplay:10.37,2013-02-03 06:08:00,
2013-02-02 22:13:00,50.0,46.9,30.22,WSW,258,0.0,0.0,89,0.00,OVC,,0.00,0.0,WeatherDisplay:10.37,2013-02-03 06:13:00,
2013-02-02 22:18:00,50.0,45.7,30.22,WSW,258,0.0,1.1,85,0.00,OVC,,0.00,0.0,WeatherDisplay:10.37,2013-02-03 06:18:00,
2013-02-02 22:23:00,49.9,45.9,30.22,WSW,258,0.0,0.0,86,0.00,OVC,,0.00,0.0,WeatherDisplay:10.37,2013-02-03 06:23:00,
2013-02-02 22:28:00,49.9,45.9,30.22,WSW,258,0.0,1.1,86,0.00,OVC,,0.00,0.0,WeatherDisplay:10.37,2013-02-03 06:28:00,
2013-02-02 22:33:00,50.1,46.4,30.22,WSW,258,0.0,0.0,87,0.00,OVC,,0.00,0.0,WeatherDisplay:10.37,2013-02-03 06:33:00,
2013-02-02 22:38:00,50.3,46.9,30.22,WSW,258,0.0,0.0,88,0.00,OVC,,0.00,0.0,WeatherDisplay:10.37,2013-02-03 06:38:00,
2013-02-02 22:43:00,50.2,46.2,30.22,WSW,258,0.0,0.0,86,0.00,OVC,,0.00,0.0,WeatherDisplay:10.37,2013-02-03 06:43:00,
2013-02-02 22:48:00,50.0,46.0,30.22,WSW,258,0.0,0.0,86,0.00,OVC,,0.00,0.0,WeatherDisplay:10.37,2013-02-03 06:48:00,
2013-02-02 22:53:00,49.8,45.5,30.22,WSW,258,0.0,0.0,85,0.00,OVC,,0.00,0.0,WeatherDisplay:10.37,2013-02-03 06:53:00,
2013-02-02 22:58:00,49.7,45.4,30.22,West,259,0.0,0.0,85,0.00,OVC,,0.00,0.0,WeatherDisplay:10.37,2013-02-03 06:58:00,
2013-02-02 23:03:00,49.6,45.3,30.22,West,263,1.5,3.5,85,0.00,OVC,,0.00,0.0,WeatherDisplay:10.37,2013-02-03 07:03:00,
2013-02-02 23:08:00,49.6,45.3,30.23,West,264,0.5,0.0,85,0.00,OVC,,0.00,0.0,WeatherDisplay:10.37,2013-02-03 07:08:00,
2013-02-02 23:13:00,49.5,45.2,30.23,WSW,257,2.8,4.6,85,0.00,OVC,,0.00,0.0,WeatherDisplay:10.37,2013-02-03 07:13:00,
2013-02-02 23:18:00,49.6,45.3,30.23,WSW,257,0.5,0.0,85,0.00,OVC,,0.00,0.0,WeatherDisplay:10.37,2013-02-03 07:18:00,
2013-02-02 23:23:00,49.6,45.3,30.23,WSW,257,0.3,2.3,85,0.00,OVC,,0.00,0.0,WeatherDisplay:10.37,2013-02-03 07:23:00,
2013-02-02 23:28:00,49.5,45.2,30.23,WSW,257,0.0,1.1,85,0.00,OVC,,0.00,0.0,WeatherDisplay:10.37,2013-02-03 07:28:00,
2013-02-02 23:33:00,49.5,45.2,30.23,WSW,256,0.0,0.0,85,0.00,OVC,,0.00,0.0,WeatherDisplay:10.37,2013-02-03 07:33:00,
2013-02-02 23:38:00,49.6,45.3,30.23,WSW,258,2.1,5.0,85,0.00,OVC,,0.00,0.0,WeatherDisplay:10.37,2013-02-03 07:38:00,
2013-02-02 23:43:00,49.5,45.2,30.23,WSW,246,0.2,1.1,85,0.00,OVC,,0.00,0.0,WeatherDisplay:10.37,2013-02-03 07:43:00,
2013-02-02 23:48:00,49.4,44.8,30.23,WSW,246,0.0,1.1,84,0.00,OVC,,0.00,0.0,WeatherDisplay:10.37,2013-02-03 07:48:00,
2013-02-02 23:53:00,49.4,44.8,30.23,WSW,246,0.0,0.0,84,0.00,OVC,,0.00,0.0,WeatherDisplay:10.37,2013-02-03 07:53:00,
2013-02-02 23:59:00,49.3,44.7,30.23,WSW,246,0.0,0.0,84,0.00,OVC,,0.00,0.0,WeatherDisplay:10.37,2013-02-03 07:59:00,